Sault Ste Marie, MI

12:50 AM EDT on March 23, 2017 (GMT -0400)
Sault Ste Marie Municipal / Sanderson Field

Weather History for KANJ - December, 2013

Change the Weather History Date:

Sunday, December 8, 2013

  Actual Average Record
Temperature  
Mean Temperature 11 °F 25 °F  
Max Temperature 19 °F 31 °F 46 °F (1923)
Min Temperature 2 °F 19 °F -8 °F (1895)
Degree Days  
Heating Degree Days 54 40  
Month to date heating degree days 351 309  
Since 1 July heating degree days 2244 2241  
Moisture  
Dew Point 6 °F    
Average Humidity 72    
Maximum Humidity 88    
Minimum Humidity 56    
Precipitation  
Precipitation 0.09 in 0.10 in 0.85 in (1927)
Month to date precipitation 0.91 0.82  
Year to date precipitation 46.89 30.98  
Snow  
Snow 0.90 in 1.00 in 8.80 in (1949)
Month to date snowfall 3.0 7.9  
Since 1 July snowfall 24.7 24.6  
Snow Depth 5.00 in    
Sea Level Pressure  
Sea Level Pressure 30.34 in    
Wind  
Wind Speed 6 mph (ESE)    
Max Wind Speed 17 mph    
Max Gust Speed 22 mph    
Visibility 7 miles    
Events Snow    
T = Trace of Precipitation, MM = Missing Value Source: NWS Daily Summary

Daily Weather History Graph

Daily Weather History Graph

Search for Another Location

Airport or City:

Trip Planner

Search our weather history database for the weather conditions in past years. The results will help you decide how hot, cold, wet, or windy it might be!

Date:

Astronomy

Dec. 08, 2013 Rise Set
Actual Time 8:08 AM EST 4:50 PM EST
Civil Twilight 7:33 AM EST 5:25 PM EST
Nautical Twilight 6:55 AM EST 6:03 PM EST
Astronomical Twilight 6:19 AM EST 6:39 PM EST
Moon 12:11 PM EST (12/8) 11:57 PM EST (12/8)
Length of Visible Light 9h 51m
Length of Day
8h 41m
Waxing Crescent, 40% of the Moon is Illuminated
Dec 8
Waxing Crescent
Dec 9
First Quarter
Dec 17
Full
Dec 25
Last Quarter
Jan 1
New

Hourly Weather History & Observations

Time (EST) Temp. Windchill Dew Point Humidity Pressure Visibility Wind Dir Wind Speed Gust Speed Precip Events Conditions
12:55 AM 8.1 °F -4.3 °F -2.9 °F 61% 30.49 in 10.0 mi WSW 8.1 mph - N/A   Clear
1:55 AM 5.0 °F -8.1 °F -5.1 °F 63% 30.48 in 10.0 mi SW 8.1 mph - N/A   Clear
2:55 AM 3.0 °F -9.3 °F -5.1 °F 69% 30.48 in 10.0 mi SSW 6.9 mph - N/A   Partly Cloudy
3:55 AM 1.9 °F -13.8 °F -5.1 °F 72% 30.48 in 10.0 mi SSW 10.4 mph - N/A   Clear
4:55 AM 1.9 °F -11.8 °F -4.0 °F 76% 30.48 in 10.0 mi SW 8.1 mph - N/A   Partly Cloudy
5:55 AM 1.9 °F -11.8 °F -4.0 °F 76% 30.50 in 10.0 mi SSW 8.1 mph - N/A   Clear
6:55 AM 3.0 °F -8.0 °F -2.0 °F 80% 30.51 in 10.0 mi SW 5.8 mph - N/A   Clear
7:55 AM 3.9 °F -8.2 °F -0.9 °F 80% 30.51 in 10.0 mi SW 6.9 mph - N/A   Mostly Cloudy
8:55 AM 3.0 °F -6.4 °F -0.9 °F 84% 30.51 in 10.0 mi East 4.6 mph - N/A   Clear
9:55 AM 7.0 °F - 1.0 °F 77% 30.50 in 10.0 mi Calm Calm - N/A   Clear
10:55 AM 10.0 °F 1.8 °F 3.0 °F 73% 30.49 in 10.0 mi SSE 4.6 mph - N/A   Clear
11:55 AM 12.9 °F 5.2 °F 3.0 °F 65% 30.48 in 10.0 mi WSW 4.6 mph - N/A   Partly Cloudy
12:55 PM 15.1 °F - 3.0 °F 59% 30.46 in 10.0 mi Calm Calm - N/A   Overcast
1:55 PM 16.0 °F - 5.0 °F 62% 30.43 in 10.0 mi Calm Calm - N/A   Overcast
2:55 PM 16.0 °F 7.4 °F 6.1 °F 65% 30.40 in 10.0 mi East 5.8 mph - N/A   Overcast
3:55 PM 17.1 °F 8.7 °F 6.1 °F 62% 30.39 in 10.0 mi ESE 5.8 mph - N/A   Overcast
4:55 PM 17.1 °F 8.7 °F 5.0 °F 59% 30.37 in 10.0 mi ESE 5.8 mph - N/A   Overcast
5:55 PM 17.1 °F 8.7 °F 8.1 °F 68% 30.34 in 10.0 mi ESE 5.8 mph - N/A   Overcast
6:53 PM 17.6 °F 8.2 °F 12.2 °F 79% 30.25 in 2.5 mi East 6.9 mph - 0.01 in Snow Light Snow
6:55 PM 17.1 °F 6.6 °F 12.0 °F 81% 30.30 in 2.5 mi East 8.1 mph - 0.01 in Snow Light Snow
7:13 PM 17.1 °F 8.7 °F 12.0 °F 81% 30.26 in 2.0 mi East 5.8 mph - 0.00 in Snow Light Snow
7:44 PM 17.1 °F 7.6 °F 12.0 °F 81% 30.23 in 1.8 mi East 6.9 mph - 0.01 in Snow Light Snow
7:55 PM 17.1 °F 7.6 °F 12.9 °F 84% 30.27 in 1.8 mi East 6.9 mph - 0.01 in Snow Light Snow
8:55 PM 16.0 °F 6.3 °F 12.9 °F 88% 30.24 in 1.8 mi East 6.9 mph - 0.03 in Snow Light Snow
9:07 PM 17.1 °F 7.6 °F 12.9 °F 84% 30.18 in 2.0 mi ENE 6.9 mph - 0.00 in Snow Light Snow
9:55 PM 17.1 °F 7.6 °F 12.9 °F 84% 30.19 in 2.5 mi East 6.9 mph - 0.01 in Snow Light Snow
10:08 PM 17.1 °F 8.7 °F 12.9 °F 84% 30.14 in 3.0 mi East 5.8 mph - 0.00 in Snow Light Snow
10:25 PM 17.1 °F 8.7 °F 12.9 °F 84% 30.13 in 2.5 mi East 5.8 mph - 0.00 in Snow Light Snow
10:37 PM 17.1 °F 8.7 °F 14.0 °F 88% 30.12 in 2.0 mi East 5.8 mph - 0.01 in Snow Light Snow
10:47 PM 18.0 °F 11.1 °F 14.0 °F 84% 30.12 in 1.5 mi East 4.6 mph - 0.01 in Snow Light Snow
10:55 PM 18.0 °F 8.7 °F 14.0 °F 84% 30.16 in 1.5 mi East 6.9 mph - 0.01 in Snow Light Snow
11:51 PM 19.4 °F 12.8 °F 15.8 °F 86% 30.07 in 2.0 mi ENE 4.6 mph - 0.02 in Snow Light Snow
11:55 PM 19.0 °F 12.3 °F 15.1 °F 85% 30.11 in 1.8 mi ENE 4.6 mph - 0.02 in Snow Light Snow